Simultaneous Nadir Overpasses (SNOs) Predictions

Prediction of SNOs between NOAA-20 and NOAA-19 Satellite Orbit:

Table of predicted SNOs for the next 14.0 days since TLE Epoch: 8/24/2024
Index Date (NOAA-20) Time (NOAA-20) Lat,Lon (NOAA-20) SZA (NOAA-20 ) Date (NOAA-19) Time (NOAA-19) Lat,Lon (NOAA-19) SZA (NOAA-19 ) Distance(km) Time Diff (sec)
1 08/25/2024 10:20:46 72.32, 17.28 61.91 08/25/2024 10:19:36 72.33, 15.66 62.02 54.59 70
2 08/25/2024 11:11:38 -72.72,-176.21 117.65 08/25/2024 11:10:29 -72.71,-176.28 117.64 2.36 69
3 08/25/2024 12:02:24 72.74, -8.94 62.39 08/25/2024 12:01:25 72.76, -8.90 62.42 3.28 59
4 08/25/2024 12:53:09 -72.78, 158.29 117.56 08/25/2024 12:52:26 -72.75, 158.31 117.58 3.42 43
5 08/25/2024 13:43:54 72.75, -34.33 62.42 08/25/2024 13:43:23 72.75, -34.43 62.43 3.24 31
6 08/25/2024 14:34:39 -72.79, 132.90 117.53 08/25/2024 14:34:23 -72.78, 132.89 117.53 0.64 16
7 08/25/2024 15:25:25 72.81, -59.83 62.51 08/25/2024 15:25:20 72.78, -59.84 62.49 2.78 5
8 08/25/2024 16:16:09 -72.80, 107.51 117.49 08/25/2024 16:16:20 -72.82, 107.48 117.48 2.34 11
9 08/25/2024 17:06:55 72.82, -85.22 62.54 08/25/2024 17:07:17 72.82, -85.26 62.54 1.17 22
10 08/25/2024 17:57:40 -72.86, 82.01 117.40 08/25/2024 17:58:17 -72.85, 82.07 117.42 2.04 37
11 08/25/2024 18:48:25 72.82,-110.62 62.58 08/25/2024 18:49:14 72.85,-110.67 62.59 3.21 49
12 08/25/2024 19:39:10 -72.86, 56.61 117.37 08/25/2024 19:40:14 -72.88, 56.65 117.37 2.44 64
13 08/25/2024 20:29:57 72.94,-136.22 62.72 08/25/2024 20:31:11 72.88,-136.09 62.65 7.45 74
14 08/25/2024 21:20:53 -73.53, 29.79 116.62 08/25/2024 21:22:00 -73.46, 32.48 116.83 85.45 67



Historial Predications of SNOs between NOAA-20 and NOAA-19
